User: anonymous   Login
Location: Unspecified
(0.0000°N, 0.0000°E)
Time: 00:00:49
(UTC+00:00)
Language:

TBA - TO BE ASSIGNED - Orbit

View from above orbital plane
View from above orbital plane
View from above satellite
View from above satellite

Ground track
Ground track

The orbit is defined by the following mean orbital elements,

1 67339U          26145.32832858 +.00000000 +00000-0 +76954-3 0 00002
2 67339  42.9998 154.3532 0001008 276.4334  83.6403 15.27608750    07
Epoch (UTC): 25 May 2026 07:52:47
Eccentricity: 0.0001008
inclination: 42.9998°
perigee height: 482 km
apogee height: 484 km
right ascension of ascending node: 154.3532°
argument of perigee: 276.4334°
revolutions per day: 15.27608750
mean anomaly at epoch: 83.6403°

The dashed part of the orbit path shows where the satellite is in the earth's shadow,  

DLR